Regional Weather Roundup
Issued by NWS Sterling, VA

Home | Current Version | Previous Version | Graphics & Text | Print | Product List | Glossary On
Versions: 1 2 3 4 5 6 7 8 9 10 11 12 13 14 15 16 17 18 19 20 21 22 23 24 25 26 27
000
ASUS41 KLWX 041410
RWRLWX

REGIONAL WEATHER ROUNDUP
NATIONAL WEATHER SERVICE BALTIMORE MD/WASHINGTON DC
1000 AM EDT WED MAY 04 2016

Note: "FAIR" indicates few or no clouds below 12,000 feet
with no significant weather and/or obstructions to visibility.
 TC=TEMPERATURE CELSIUS

 * =Non NWS site. Station does not report precipitation (e.g. rain,
    snow, etc.), thunder, or fog.

DCZ001-MDZ009-015-VAZ040>042-051-053>054-041500-
WASHINGTON METRO

CITY           SKY/WX    TMP DP  RH WIND       PRES   REMARKS
WASHINGTON NAT CLOUDY    55  51  86 NE8       29.73S
DULLES         CLOUDY    55  51  86 E7        29.73R
ANDREWS AFB    CLOUDY    53  51  92 E8        29.72S
FT BELVOIR     CLOUDY    54  51  90 VRB2      29.73S
QUANTICO       CLOUDY    55  53  93 SE9       29.74R FOG
COLLEGE PARK*  CLOUDY    52  50  93 E5        29.73S
LEESBURG*      CLOUDY    54  54 100 E7        29.74R FOG
MANASSAS*      CLOUDY    55  55 100 SE6       29.72F
GAITHERSBURG*  CLOUDY    54  48  82 E5        29.77R

$$

MDZ006>007-011-014-041500-
BALTIMORE METRO

CITY           SKY/WX    TMP DP  RH WIND       PRES   REMARKS
BWI AIRPORT    CLOUDY    53  50  89 E10       29.73S
MD SCIENCE CTR   N/A     54  49  83 MISG      29.75S
MARTIN STATE   CLOUDY    54  54 100 NE8       29.76S
ANNAPOLIS      CLOUDY    53  50  89 E7        29.74S
FORT MEADE*    CLOUDY    52  48  87 E5        29.76S

$$

MDZ012-015-019>023-041500-
MARYLAND EASTERN SHORE

CITY           SKY/WX    TMP DP  RH WIND       PRES   REMARKS
OCEAN CITY     CLOUDY    52  51  97 NE13      29.71F FOG
SALISBURY      CLOUDY    53  53 100 NE8       29.71F FOG
CAMBRIDGE*     CLOUDY    52  50  93 NE5       29.72S
EASTON*        LGT RAIN N/A N/A N/A E6        29.77S

$$

MDZ017>025-041500-
SOUTHERN MARYLAND

CITY           SKY/WX    TMP DP  RH WIND       PRES   REMARKS
PATUXENT RIVER CLOUDY    54  51  90 NE6       29.73R
ST INIGOES     CLOUDY    54  52  93 NE5       29.72R FOG
LEONARDTOWN*   CLOUDY    52  50  93 CALM      29.75R

$$

MDZ003>005-041500-
NORTH CENTRAL MARYLAND

CITY           SKY/WX    TMP DP  RH WIND       PRES   REMARKS
FREDERICK*     CLOUDY    54  54 100 VRB3      29.76  FOG
HAGERSTOWN APT CLOUDY    59  53  80 E5        29.70F
WESTMINSTER*   RAIN      52  45  76 SE3       29.73S

$$

MDZ501>502-041500-
WESTERN MARYLAND

CITY           SKY/WX    TMP DP  RH WIND       PRES   REMARKS
OAKLAND*       CLOUDY    45  45 100 SW6       29.71S FOG
CUMBERLAND*    PTSUNNY   55  50  82 CALM      29.75S

$$

VAZ025>031-041500-
SHENANDOAH VALLEY

CITY           SKY/WX    TMP DP  RH WIND       PRES   REMARKS
WINCHESTER*    PTSUNNY   59  52  77 CALM      29.70F
FRONT ROYAL*   PTSUNNY   57  52  82 CALM      29.69F
LURAY*         FAIR      59  55  88 CALM      29.70F
NEW MARKET*    FAIR      59  49  69 CALM      29.69F
STAUNTON*      FAIR      60  53  79 CALM      29.73S
WAYNESBORO*    PTSUNNY   58  47  67 NW5       29.71S

$$

WVZ021-048>050-054>055-041500-
EASTERN WEST VIRGINIA PANHANDLE

CITY           SKY/WX    TMP DP  RH WIND       PRES   REMARKS
MARTINSBURG    PTSUNNY   60  51  72 VRB3      29.70F
PETERSBURG*    CLOUDY    55  51  85 CALM      29.72S

$$

VAZ036>039-050-041500-
CENTRAL FOOTHILLS

CITY           SKY/WX    TMP DP  RH WIND       PRES   REMARKS
CHARLOTTESVILL PTSUNNY   61  54  77 E3        29.70F
CULPEPER*      CLOUDY    59  56  89 CALM      29.72S
ORANGE*        CLOUDY    61  57  88 CALM      29.73S
GORDONSVILLE*  CLOUDY    60  54  79 E6        29.71R
WARRENTON*     CLOUDY    58  52  80 E3        29.72R

$$

VAZ055>057-041500-
NORTH AND CENTRAL PIEDMONT

CITY           SKY/WX    TMP DP  RH WIND       PRES   REMARKS
FREDERICKSBRG* CLOUDY    56  56 100 E6        29.72S FOG
STAFFORD*      CLOUDY    55  54  94 E5        29.76S FOG

$$

NCZ024-NYZ072-PAZ021-071-VAZ022-071-041500-
OTHER REGIONAL OBSERVATIONS

CITY           SKY/WX    TMP DP  RH WIND       PRES   REMARKS
NEW YORK CITY  CLOUDY    51  43  74 NE13G18   29.82S
PHILADELPHIA   CLOUDY    53  47  79 E13       29.77S
PITTSBURGH     PTSUNNY   57  41  55 CALM      29.70F
ROANOKE        CLOUDY    60  48  64 SW6       29.75F
RICHMOND       CLOUDY    59  55  87 NE7       29.70F
RALEIGH        CLOUDY    61  57  87 N6        29.71F

$$

ANZ530>537-041500-
MARINE OBSERVATIONS

STATION/POSITION TIME  TEMP    WIND        PRES
                       AIR SEA DIR/SP/G
                 (UTC) (F)     (DEG/KT/KT) (MB)
THOMAS PT LIGHT  1400   52 58   40/  6/  7 1008.4R
BALT KEY BRIDGE  1300   52      60/  8/ 10 1006.9S
COVE POINT       1300   52      60/  6/  9 1007.1R
LEWISETTA        1300   55 63   70/  5/  8 1006.0S
SOLOMONS ISLAND  1300   53 60   50/  3/  5   N/A
PINEY POINT      1300           60/  4/  5   N/A

$$





USA.gov is the U.S. government's official web portal to all federal, state and local government web resources and services.